Wind_Speed
20 20 20 20 20 19 19 19 18 18 17 17 17 17 16 15 15 16 16 16 15 15 14 13 13 13 12 10 9 8 9 10 11 14 18 15 12 13 14 14 14 11 11 11 11 12 15 19 21 22 21 20 19 18 16 15 14 13 12 11 8 6 6 6 5 4 3 2 2 3 5 4 4 5 4 6 5 2 1 1 2 3 4 5 4 4 4 5
21 21 21 21 21 21 20 20 20 19 19 19 18 18 17 16 16 16 17 17 17 16 15 15 14 15 14 13 12 9 9 9 11 15 14 12 13 16 14 14 14 12 12 13 13 14 15 18 22 22 21 21 21 20 18 16 14 12 11 10 9 7 7 8 8 6 5 3 3 6 6 4 4 4 4 7 6 4 3 2 3 4 4 5 5 5 5 6
21 21 21 21 21 21 21 21 21 20 20 20 20 19 19 18 17 17 18 18 19 18 17 16 15 16 16 15 14 12 11 10 12 13 9 9 15 18 16 16 15 14 15 15 16 17 17 18 20 22 22 23 22 21 19 17 14 12 12 11 10 10 9 8 8 8 9 4 3 6 6 5 4 4 6 7 6 5 5 5 6 6 5 5 6 7 7 7
22 22 22 22 22 22 22 22 22 21 21 20 21 20 20 19 18 17 18 19 20 19 18 17 17 16 16 16 16 15 13 11 13 12 9 12 16 18 19 17 16 16 17 17 16 18 19 18 19 20 22 23 23 22 20 17 15 13 13 13 12 11 10 8 8 11 9 4 3 4 4 6 5 5 6 7 6 5 5 6 7 6 6 6 6 7 7 7
23 23 23 23 23 23 23 23 22 22 22 22 21 21 21 20 20 19 18 19 20 21 19 18 18 18 17 17 16 17 15 13 16 14 10 13 15 16 18 19 19 18 18 18 16 17 18 18 18 18 19 22 22 22 20 19 17 15 14 14 13 10 10 8 9 12 9 6 5 4 4 5 4 6 5 6 6 3 4 6 6 6 7 8 7 7 7 7
25 25 24 24 24 24 24 24 24 23 23 23 22 23 22 22 21 20 20 19 20 22 21 20 19 19 19 17 17 17 15 15 18 14 10 13 15 16 18 19 20 20 19 19 17 16 16 17 18 17 17 19 20 19 20 21 19 17 15 14 13 12 11 9 9 10 8 8 8 4 5 4 4 6 5 6 6 1 2 4 4 4 7 8 8 8 8 8
27 27 27 26 26 26 26 25 25 25 25 24 24 24 23 23 22 22 21 20 20 21 22 21 20 21 20 19 18 17 17 16 16 16 15 15 16 17 17 18 20 22 21 20 19 16 15 15 16 16 18 18 18 18 21 21 19 19 17 15 15 13 13 12 10 8 7 8 8 7 7 4 5 6 5 7 7 3 2 3 5 5 6 8 8 8 8 9
30 30 29 29 29 28 28 27 27 26 26 26 26 26 25 25 24 24 23 22 21 21 22 22 20 22 21 21 19 18 19 16 14 19 19 16 16 17 16 17 19 22 22 22 21 19 16 14 14 16 17 18 19 20 21 22 20 19 18 17 15 13 14 14 11 9 8 8 9 10 8 5 5 4 6 9 8 5 2 5 7 5 6 8 8 8 8 9
31 31 31 31 31 31 30 30 29 29 28 28 27 27 27 27 26 26 25 25 24 22 23 22 21 22 22 22 20 19 21 17 15 20 20 17 17 17 16 17 19 21 24 24 23 21 18 14 15 16 17 19 21 22 23 23 21 18 19 19 16 15 15 15 13 12 11 10 12 13 9 7 6 4 8 11 7 3 3 6 7 6 7 8 8 8 9 9
32 32 32 32 32 32 32 32 32 31 31 30 30 29 29 29 28 28 27 27 26 25 24 22 22 22 22 22 19 22 25 20 17 19 20 19 18 18 17 17 18 20 23 25 25 23 19 16 16 18 20 22 23 24 25 23 21 20 20 20 19 18 17 16 13 12 11 12 15 15 10 8 7 7 11 10 6 4 4 5 6 7 6 6 7 7 8 9
32 32 32 32 33 33 33 33 33 33 33 32 32 32 31 31 30 30 29 29 28 28 27 25 24 22 22 21 19 26 28 20 17 18 20 20 20 19 18 17 18 20 22 24 26 24 22 20 19 22 23 23 23 25 25 23 23 22 20 18 19 20 20 19 15 12 12 13 15 13 9 9 8 9 12 11 7 5 5 4 6 7 5 5 6 7 7 9
32 33 32 32 33 33 34 34 34 34 34 34 34 34 34 33 33 32 31 30 30 30 29 28 26 24 22 18 21 30 27 20 19 19 20 21 21 20 19 19 18 19 20 22 25 26 25 24 23 23 22 23 24 24 23 22 23 23 21 20 19 20 21 20 18 15 14 15 15 13 12 10 9 11 13 12 8 5 5 4 5 6 4 5 7 7 8 8
32 32 32 33 33 33 33 33 34 35 35 35 35 35 35 36 36 34 34 33 32 32 31 31 28 27 23 16 24 31 26 23 22 20 21 22 23 21 19 20 20 20 20 21 24 26 27 27 26 24 24 26 25 24 23 22 22 23 23 23 22 21 20 19 18 17 15 15 15 14 13 10 10 13 14 13 9 6 6 5 5 6 5 7 7 7 8 8
31 32 32 32 32 32 33 33 33 34 35 36 36 36 36 37 37 37 36 35 34 34 33 33 31 30 24 18 28 31 25 24 23 21 23 24 25 23 20 21 21 21 21 22 23 25 28 29 28 27 27 26 25 25 25 25 25 25 25 24 24 22 18 18 19 18 16 14 15 15 13 10 11 14 15 14 11 7 7 6 6 8 7 7 6 7 8 8
31 32 32 32 32 32 32 32 33 33 34 35 35 36 36 38 38 38 38 38 37 36 36 35 33 32 27 23 31 31 25 24 23 25 28 27 28 25 22 22 23 23 23 23 23 24 27 30 30 30 28 26 27 27 25 27 27 25 25 23 22 20 16 17 19 17 14 14 17 16 13 12 11 14 16 14 12 11 9 7 7 7 6 6 6 7 6 7
33 33 34 34 34 34 33 33 33 33 33 34 35 35 36 37 38 39 39 39 40 39 38 38 36 34 30 28 32 32 27 25 26 30 30 29 28 25 24 24 24 24 24 24 24 25 27 29 31 31 30 29 28 26 26 28 25 22 22 20 19 19 18 18 16 15 14 15 18 16 14 14 11 14 19 16 14 14 10 8 7 7 6 5 6 6 6 6
36 36 37 37 36 36 36 35 35 35 35 35 35 35 35 36 38 39 39 40 41 41 41 40 38 37 33 32 33 34 32 28 29 29 28 28 28 28 28 26 26 26 25 26 26 26 27 28 30 31 32 31 28 28 29 26 22 20 21 19 18 18 20 18 15 16 17 17 17 16 16 13 11 15 20 18 15 12 9 8 8 9 8 5 6 6 6 6
39 39 40 40 40 40 39 38 37 37 36 36 37 36 36 36 37 38 38 40 42 42 43 42 41 39 36 34 34 36 35 32 30 29 28 28 29 31 30 28 29 28 28 28 26 26 27 27 29 32 33 32 30 30 27 21 20 20 20 19 18 19 19 18 16 13 14 17 17 17 17 15 14 17 20 20 15 9 10 10 10 11 9 6 6 6 7 7
43 43 44 44 44 44 44 43 42 41 40 39 39 39 38 38 38 38 37 39 41 43 44 44 43 41 38 37 36 37 38 36 34 31 29 29 29 32 32 32 31 31 31 29 27 27 27 28 30 29 27 28 29 28 24 21 22 22 20 19 20 21 19 16 16 10 7 13 16 16 15 15 18 19 22 21 16 13 13 12 11 11 10 8 7 7 8 8
45 46 46 47 47 47 48 48 47 46 45 44 43 42 41 40 40 40 38 38 40 41 43 45 44 41 39 40 39 39 40 39 37 34 32 31 31 32 33 34 34 34 32 28 27 28 30 32 29 22 21 24 26 27 25 25 25 23 23 23 22 22 20 16 14 14 11 15 16 16 15 16 20 22 24 22 19 18 15 12 11 10 11 13 11 8 8 9
46 46 47 47 48 48 49 50 49 49 49 49 48 46 45 44 43 42 40 38 39 41 42 43 45 42 39 41 42 41 41 41 39 37 35 34 35 36 35 34 35 34 30 28 30 31 35 33 23 19 21 23 25 27 28 28 27 25 26 26 23 23 19 15 14 19 17 21 21 22 21 20 21 21 22 23 22 22 16 12 12 12 13 13 13 10 8 9
47 47 47 48 48 48 49 49 50 50 50 51 51 50 50 48 47 46 42 39 39 42 43 41 44 43 37 40 44 44 44 43 41 39 38 37 38 38 36 35 34 32 30 33 35 36 37 27 18 21 24 24 25 27 29 30 29 28 28 27 25 24 18 12 13 20 18 23 25 26 23 19 20 21 21 25 26 24 18 14 14 15 13 12 14 12 10 10
49 49 49 50 50 50 50 51 51 50 50 50 50 51 52 52 52 50 47 42 38 41 45 42 42 42 37 37 43 47 45 43 42 40 40 41 40 38 38 36 33 31 33 37 37 37 31 19 19 26 27 26 26 27 30 32 33 32 31 29 26 25 21 14 12 17 18 22 25 26 24 20 19 19 21 26 29 25 19 17 18 18 14 12 14 14 12 10
51 52 52 52 53 54 54 54 54 53 52 51 50 50 50 51 53 53 52 47 40 41 45 43 41 41 38 36 41 48 47 44 44 43 43 44 42 41 40 38 34 34 35 36 37 36 27 20 25 30 28 28 28 28 31 34 35 33 32 31 26 25 24 21 18 15 15 21 26 25 25 24 21 19 22 28 30 28 22 21 23 20 16 13 14 15 13 11
53 54 54 54 54 54 56 56 56 57 56 56 55 53 51 50 51 53 54 50 47 48 47 44 44 44 41 39 42 48 48 45 44 44 45 45 43 43 43 41 38 37 36 35 36 35 29 27 31 32 30 30 30 29 30 31 34 34 34 33 29 27 24 25 28 21 17 21 27 28 29 29 25 23 23 26 30 31 27 26 25 21 17 14 13 14 14 14
53 53 54 54 52 51 53 55 55 57 57 58 59 58 57 55 52 51 51 51 51 52 50 47 48 47 45 44 43 45 47 46 43 44 46 45 45 45 46 45 42 39 37 36 38 36 31 32 35 34 31 30 31 31 30 29 32 34 33 32 30 30 28 29 35 30 26 23 25 31 31 29 27 25 21 21 25 29 30 29 27 22 17 14 13 14 15 16
49 49 49 50 49 47 47 47 50 53 55 56 58 59 59 60 59 55 52 50 48 49 52 51 49 47 47 47 46 46 48 45 42 42 45 46 46 47 48 48 45 42 40 40 41 38 33 35 38 35 32 31 32 31 29 29 31 32 31 31 31 32 32 32 37 37 34 29 23 26 30 30 32 30 24 22 24 26 30 30 28 25 19 15 14 15 17 17
45 44 43 43 44 44 42 41 43 46 48 50 52 54 56 58 61 59 55 51 42 40 47 50 50 50 50 49 49 48 47 45 41 40 43 46 47 47 49 49 47 44 43 43 42 35 31 34 37 35 34 34 32 28 27 29 31 30 29 32 33 34 35 34 36 40 37 34 30 23 26 30 32 30 25 26 27 25 27 28 29 27 22 19 15 14 19 18
40 39 38 38 40 40 38 36 36 36 37 39 41 43 46 50 55 57 57 53 41 35 42 48 51 53 52 52 51 49 48 47 45 42 42 46 48 48 47 47 48 47 45 45 43 37 34 35 36 36 36 35 32 29 29 31 32 28 28 32 33 34 36 36 38 40 40 40 40 31 26 30 30 27 24 25 25 24 23 25 29 29 25 23 17 12 17 19
37 37 36 36 35 34 33 34 34 35 35 36 38 39 40 42 45 48 51 52 44 35 39 46 50 51 52 54 54 52 51 49 49 47 45 46 49 48 46 46 47 49 48 47 46 43 39 37 37 38 37 35 33 32 31 33 32 28 28 31 33 35 37 38 39 40 42 45 43 38 31 28 29 30 28 25 23 23 24 22 25 29 29 25 18 11 12 18
36 35 34 32 30 30 33 37 40 41 41 41 41 41 41 42 43 44 44 46 44 38 39 45 48 49 50 54 55 54 53 52 50 49 47 47 49 50 49 49 50 51 52 52 50 47 44 43 42 40 39 37 36 35 34 35 33 30 30 31 33 35 35 37 38 41 46 47 41 37 36 35 36 34 28 24 25 27 25 19 19 26 28 24 19 13 9 15
33 31 32 31 31 34 38 41 43 44 45 45 44 43 43 44 44 45 41 37 37 39 43 48 50 50 50 52 54 55 55 53 50 49 49 48 50 53 52 50 52 54 54 54 52 50 47 45 44 42 41 39 39 38 38 38 35 33 33 34 35 36 36 37 39 43 48 46 40 38 38 41 41 34 26 21 25 29 25 20 20 22 23 21 19 15 11 13
30 31 33 33 35 39 41 42 43 44 44 44 44 44 44 44 44 45 42 32 36 42 45 50 52 52 52 51 51 53 54 52 48 46 49 50 49 51 52 50 49 51 52 52 53 51 48 46 45 44 43 42 41 41 41 41 38 36 36 36 36 36 37 39 41 43 44 43 40 40 41 43 41 34 30 29 29 29 22 20 24 24 22 22 21 18 14 13
32 34 36 38 40 42 42 42 42 42 43 43 43 44 43 44 45 46 45 37 34 40 43 47 51 52 53 50 45 45 51 50 44 40 40 46 50 51 52 51 49 50 51 50 51 52 50 49 47 45 45 44 42 42 41 39 37 36 35 36 36 36 37 37 37 38 39 39 40 41 42 43 39 34 33 34 32 29 23 21 26 26 24 26 27 25 20 13
37 39 41 43 43 42 40 39 40 40 41 42 42 43 42 43 45 45 46 42 30 32 39 44 50 50 48 47 43 41 48 50 47 46 41 39 46 50 52 52 49 49 50 51 51 52 53 50 46 45 45 43 41 41 40 39 38 37 36 38 38 37 36 34 33 34 36 37 39 39 38 36 33 33 35 36 35 32 29 28 29 27 26 29 31 31 25 14
41 42 44 44 41 40 39 38 40 40 40 41 41 42 41 41 43 43 43 41 26 25 36 45 52 50 47 49 50 48 50 50 49 52 49 42 41 42 46 50 49 49 50 51 52 52 53 51 46 45 45 44 42 41 42 42 39 38 40 40 38 35 33 33 34 34 36 38 36 34 32 30 30 32 33 34 32 29 30 32 32 29 27 28 30 30 23 13
42 43 43 42 39 39 40 39 40 39 38 40 40 40 40 40 41 39 39 38 24 22 34 46 55 52 50 53 53 53 53 51 49 49 49 47 42 36 36 41 43 44 47 50 51 51 52 51 48 47 46 45 44 42 42 42 40 39 41 40 37 36 34 33 36 36 36 36 32 29 28 28 29 28 24 26 26 22 22 26 30 30 30 30 30 28 21 13
43 43 42 42 40 40 41 40 41 40 37 38 38 38 39 40 39 34 34 36 25 21 32 45 54 52 49 52 54 54 54 51 49 48 46 47 48 43 39 39 39 41 43 46 49 49 49 47 45 47 47 44 43 43 43 42 41 41 41 40 38 38 37 38 39 37 35 34 30 28 28 26 27 24 18 19 21 19 17 19 23 27 30 33 32 29 22 16
43 44 44 44 41 40 41 40 40 39 37 37 37 37 37 38 36 32 30 31 26 22 28 40 52 52 47 49 54 55 54 52 50 50 48 49 51 52 53 51 47 46 45 46 48 48 49 45 39 42 45 43 42 45 47 45 43 43 42 40 39 37 37 39 39 35 33 32 30 27 26 25 25 21 17 17 17 16 16 18 22 24 27 33 33 28 22 18
43 43 44 43 40 39 41 41 40 39 36 35 36 35 35 34 31 30 28 26 24 23 25 34 45 50 48 48 51 54 56 55 54 54 55 55 55 56 60 56 49 46 45 50 54 50 50 50 44 37 33 36 42 48 50 47 45 46 45 43 41 39 36 35 37 35 32 32 29 24 22 21 17 14 15 16 15 14 14 17 22 23 23 29 31 26 24 21
42 42 42 42 41 39 40 40 38 37 37 36 34 33 32 31 28 26 26 24 23 23 24 28 36 45 48 49 50 53 57 58 58 57 59 62 60 58 61 57 51 47 44 49 55 52 51 54 50 40 29 32 42 47 49 48 45 45 46 45 44 41 37 36 37 35 32 32 30 23 17 12 8 10 14 16 15 15 16 16 19 20 21 25 27 27 27 24
43 42 42 42 42 40 39 38 37 37 37 36 33 29 27 27 25 23 23 23 22 21 22 25 30 37 42 47 50 52 56 59 60 57 59 65 63 59 60 57 54 52 49 52 57 57 57 56 52 44 38 33 36 36 40 46 45 43 43 45 45 43 40 39 38 35 33 33 31 26 19 12 7 12 15 13 14 17 18 17 18 18 19 24 27 28 28 24
44 43 42 41 41 42 40 39 38 38 37 35 31 26 24 24 24 22 22 22 23 22 21 23 28 31 34 39 47 53 54 58 60 56 56 62 62 59 59 58 57 56 54 55 58 59 60 58 52 46 41 36 32 31 33 36 39 41 43 44 45 44 43 41 37 34 34 34 32 31 28 21 13 11 12 13 15 20 20 17 18 20 19 22 26 27 25 23
44 42 41 40 40 43 43 40 40 39 37 34 28 23 22 22 20 19 20 21 22 22 20 21 25 28 30 32 40 51 55 58 60 55 54 59 60 59 60 60 60 59 57 55 55 57 60 59 55 49 43 38 34 35 37 35 36 41 45 45 45 44 41 38 36 34 34 34 32 33 34 28 20 14 14 19 21 22 20 17 17 19 18 20 23 23 22 22
44 42 42 41 42 44 42 40 40 38 35 30 24 20 20 20 17 17 18 19 19 20 20 20 22 26 29 31 35 43 52 59 61 56 53 54 57 59 62 64 63 62 62 58 56 59 62 62 59 55 50 43 40 41 45 43 40 41 44 44 45 43 38 35 36 36 34 34 33 32 32 31 27 23 20 24 24 22 23 19 16 18 19 19 21 21 20 21
44 43 43 42 42 43 40 38 38 35 32 25 18 17 18 17 15 15 17 18 18 19 20 21 22 24 27 32 36 39 48 58 60 58 53 50 54 59 62 65 66 65 65 62 59 60 62 63 64 61 56 49 45 45 44 43 42 41 41 42 43 44 39 33 35 37 35 33 31 29 28 30 33 31 28 27 24 20 25 23 18 19 21 21 21 20 19 18
44 45 44 41 39 39 38 38 36 33 29 21 14 15 17 15 14 15 16 17 18 19 19 18 21 23 24 28 37 42 47 54 59 60 54 49 52 56 60 64 67 67 67 65 62 62 63 64 64 64 59 52 50 47 38 37 41 40 38 39 41 44 44 37 33 35 35 32 29 27 25 28 32 32 30 29 26 24 26 27 23 21 20 20 21 21 20 19
43 44 43 40 38 37 36 36 36 33 27 18 12 13 15 14 14 15 16 16 17 19 17 15 17 20 22 25 32 39 45 51 58 61 56 50 50 52 56 62 67 69 69 68 66 65 66 65 65 66 62 56 52 45 34 33 40 42 39 37 38 42 46 44 36 31 32 32 29 27 27 29 29 28 26 26 26 26 26 24 21 20 20 21 22 22 22 20
42 40 40 40 39 38 36 35 34 31 23 15 12 14 14 14 14 14 15 15 16 17 17 14 14 16 19 23 27 33 41 49 56 61 58 52 48 47 51 57 63 69 72 71 70 68 67 66 68 70 65 59 54 47 40 41 43 43 42 37 36 40 44 45 38 30 29 29 26 24 24 25 24 23 22 21 21 24 26 23 22 24 25 24 24 24 24 22
40 38 38 39 40 39 36 33 32 28 20 15 14 14 13 14 15 16 16 15 14 15 15 14 13 14 16 20 24 29 36 44 54 61 60 54 47 42 45 52 59 68 73 73 71 69 68 69 71 71 67 62 57 50 47 48 44 44 44 37 34 38 41 42 41 33 28 26 24 23 21 20 22 23 22 22 22 25 27 25 24 26 25 24 25 26 25 23
38 36 39 41 41 39 35 32 31 27 21 17 16 14 13 14 15 16 15 15 15 14 14 15 14 14 14 17 21 25 32 40 49 59 61 57 49 40 40 49 58 66 71 71 70 70 69 69 72 72 68 65 60 52 49 50 47 46 45 38 37 40 38 40 42 38 29 26 26 27 25 25 27 26 26 27 27 29 30 29 29 29 27 27 27 28 27 24
36 36 39 42 41 39 36 31 31 28 23 21 18 14 13 13 14 15 14 13 14 15 14 15 14 13 12 14 18 22 29 36 43 54 61 60 54 41 36 45 59 65 66 67 69 71 70 69 71 73 71 69 64 54 51 53 52 48 44 39 40 42 37 36 40 41 34 27 29 31 30 31 34 32 31 32 31 32 34 33 32 31 30 29 29 29 29 26
Wind_Direction
302 301 301 300 298 297 296 295 294 294 292 290 287 283 278 276 273 273 274 273 271 267 264 263 267 271 271 269 262 255 252 248 241 239 241 236 228 234 233 233 240 234 224 217 211 214 215 212 213 217 219 220 225 227 225 217 204 197 199 201 200 190 178 187 208 233 229 164 152 242 257 255 273 277 283 302 309 298 238 218 259 266 263 268 268 261 256 251
299 299 299 299 298 297 296 295 294 294 293 291 289 285 282 277 272 270 269 269 268 266 263 260 261 264 268 270 267 260 254 253 244 239 245 245 235 236 235 234 236 233 229 218 206 207 211 211 215 218 218 221 226 227 226 222 211 199 201 202 201 195 186 208 224 218 211 207 200 227 247 266 288 287 290 304 315 331 346 330 300 286 275 274 278 279 275 268
298 297 296 296 295 295 295 294 294 294 293 291 289 287 285 280 274 269 267 267 265 264 264 262 259 259 262 266 267 265 257 252 251 252 256 246 236 236 234 234 233 228 229 226 215 209 210 212 214 216 218 221 225 227 225 223 216 203 202 203 206 200 185 203 222 209 198 205 226 218 244 266 255 267 290 301 319 336 340 336 315 305 301 290 285 288 282 274
297 296 295 294 293 292 292 292 292 292 291 290 289 288 286 283 278 272 267 265 265 263 262 262 260 258 258 260 263 264 260 255 256 256 245 237 235 234 232 232 233 229 228 230 224 218 218 219 217 215 216 220 223 226 225 223 218 207 203 205 211 203 195 211 216 211 199 192 218 198 241 254 241 265 281 295 313 328 339 345 335 321 310 304 300 296 288 277
295 295 294 293 292 291 290 289 289 288 288 288 287 287 285 284 281 276 270 266 265 264 261 259 260 259 256 255 258 260 260 258 254 249 242 246 245 239 234 231 232 233 231 232 231 227 225 225 223 219 218 220 223 227 225 223 219 210 204 203 212 206 202 211 202 207 205 208 219 188 224 240 248 263 270 291 295 315 345 339 341 332 320 317 314 304 294 286
292 291 291 291 290 290 290 289 288 286 285 285 284 284 284 283 281 279 275 269 267 265 262 258 257 258 257 254 253 255 256 255 256 254 247 249 248 242 237 232 230 233 235 236 235 231 228 226 225 224 223 223 225 226 225 225 221 216 208 198 207 206 201 207 196 199 204 216 231 234 238 243 258 260 276 286 274 287 338 313 307 318 322 321 316 309 300 293
289 288 288 287 287 287 287 287 287 286 285 283 282 281 280 280 279 278 277 274 269 267 264 260 256 256 257 255 252 253 252 250 257 259 246 239 244 245 240 235 231 231 235 237 238 235 231 227 224 222 221 223 225 223 225 228 223 219 215 205 206 208 204 205 194 191 209 224 234 246 239 229 258 267 283 271 270 305 314 280 282 293 311 315 317 314 305 300
288 287 286 285 284 283 283 283 283 284 283 282 281 279 278 277 276 276 275 274 271 269 266 263 258 256 255 255 253 253 252 246 249 253 247 239 242 245 242 238 233 230 231 234 237 235 230 224 218 216 217 219 219 218 223 228 225 221 221 217 211 211 213 210 206 213 230 231 230 240 238 228 246 261 269 265 275 304 280 262 278 288 297 305 317 318 310 304
288 287 286 285 284 282 281 280 280 279 279 280 279 278 277 275 274 273 272 273 272 270 267 265 261 257 255 254 254 255 252 241 238 247 249 245 242 243 242 238 235 231 229 232 235 234 230 223 215 212 211 213 214 217 220 224 224 220 222 226 216 210 218 218 219 228 227 224 228 232 231 225 225 241 256 261 271 280 254 270 282 288 296 304 309 312 310 305
287 286 285 285 283 282 281 280 278 277 276 276 276 276 275 275 273 271 269 269 270 269 268 266 263 260 256 253 253 255 250 239 237 246 247 246 243 240 240 240 238 234 231 231 234 234 232 225 218 212 209 211 212 214 219 221 221 218 218 226 223 212 216 219 217 224 219 223 233 228 220 213 209 232 247 250 252 249 256 280 286 286 295 307 304 307 308 302
288 287 285 284 283 282 281 279 278 276 275 274 273 273 272 273 272 271 269 267 266 267 267 266 264 261 258 255 253 252 249 240 239 246 246 245 244 240 238 239 240 238 235 232 232 233 231 226 222 217 212 213 215 216 218 218 219 220 215 222 231 220 212 212 212 219 216 222 234 231 226 220 213 230 243 246 245 253 270 279 286 288 295 306 306 309 306 302
290 289 287 285 284 282 280 279 278 276 274 273 271 270 270 269 269 269 269 267 265 264 264 264 263 262 259 258 254 250 247 243 237 240 246 245 242 240 238 237 238 240 238 235 232 231 230 227 225 223 218 216 217 218 220 219 221 224 218 215 227 229 218 209 207 213 215 218 224 225 225 223 225 228 231 239 239 250 270 276 286 284 291 312 314 309 303 304
293 291 290 288 286 284 282 280 278 276 274 272 271 269 268 267 266 266 266 266 265 264 262 261 261 260 258 256 255 251 247 244 237 236 244 247 243 239 237 237 234 236 238 236 233 230 230 229 228 225 221 220 218 217 218 218 219 226 230 225 222 226 224 216 214 216 217 217 216 220 224 222 231 228 227 242 247 254 265 278 296 283 289 314 317 311 307 305
295 294 292 290 289 287 284 282 280 278 276 274 271 269 267 266 265 264 263 263 263 263 262 260 258 257 256 252 255 254 249 244 240 238 241 244 244 238 235 237 233 233 235 235 234 231 229 229 229 227 224 223 221 220 216 214 215 218 226 227 224 223 219 221 226 223 220 218 217 223 227 224 231 231 231 249 260 260 259 267 284 283 292 307 308 310 309 304
297 296 294 293 291 289 287 285 283 281 278 276 273 270 268 266 264 263 262 261 260 260 260 260 258 256 253 248 253 257 253 248 244 240 237 237 240 238 235 236 234 231 231 233 234 232 230 228 228 229 229 225 224 225 220 219 221 221 221 221 222 221 214 220 227 227 223 220 220 220 222 221 229 245 244 247 257 256 250 255 265 268 280 294 296 302 305 303
298 297 296 294 292 291 289 287 285 283 281 278 275 272 269 267 265 263 261 260 259 257 257 258 258 256 251 245 251 256 253 247 242 238 237 237 239 239 236 235 235 233 230 231 232 232 231 229 228 229 230 227 225 226 225 226 228 227 227 224 219 216 214 220 226 224 220 222 224 219 221 220 214 244 254 246 246 249 247 249 254 255 260 273 284 295 302 304
299 297 296 294 292 291 289 288 286 284 282 280 278 275 272 268 266 264 262 260 258 257 256 254 254 255 252 246 247 251 252 248 245 242 242 241 240 238 236 234 235 235 232 230 229 231 232 231 229 227 228 229 226 226 226 230 233 230 229 228 221 216 215 220 225 224 222 223 226 221 220 221 212 232 251 252 246 245 250 249 248 255 256 260 277 287 291 297
297 296 294 293 292 291 289 288 286 284 282 280 278 276 274 271 267 264 262 261 259 257 255 253 252 251 251 249 247 249 251 250 247 244 243 243 240 237 235 233 235 235 233 231 228 229 232 232 232 229 228 228 227 228 230 232 234 232 232 229 223 221 220 217 215 224 233 222 220 226 222 218 220 230 244 250 248 239 246 248 240 249 255 255 266 271 280 294
293 292 291 290 290 289 288 287 286 284 282 280 278 276 273 271 269 265 262 261 259 258 256 254 252 250 249 248 246 247 248 247 246 243 242 243 242 239 235 233 233 234 234 233 231 230 231 231 231 231 231 231 231 232 233 233 232 231 234 232 225 223 222 218 208 202 238 231 220 227 229 224 221 232 242 241 242 238 236 243 238 242 257 258 251 254 275 295
291 290 289 288 287 286 285 284 283 282 280 279 277 275 273 271 269 266 263 261 260 259 258 256 252 249 248 247 244 243 245 245 245 244 241 241 241 240 236 233 233 234 234 235 235 234 233 232 230 231 234 236 235 234 233 231 229 228 229 229 226 223 220 223 208 181 208 238 234 237 251 251 229 230 245 242 239 238 229 238 238 233 251 261 259 254 268 289
292 290 289 288 286 285 284 283 282 280 279 277 275 274 272 271 269 266 263 261 261 259 257 257 255 249 246 249 246 242 243 244 243 243 242 241 242 241 239 236 234 234 235 235 235 235 234 232 228 230 234 234 233 233 231 230 228 225 227 228 224 222 216 215 192 167 199 236 245 257 265 259 235 225 244 251 248 245 237 239 236 225 235 253 266 270 268 279
294 292 291 289 288 286 284 283 281 279 278 276 274 272 270 269 268 266 264 261 259 260 259 256 256 253 247 248 249 243 240 241 241 240 240 241 242 244 243 240 237 236 234 234 233 234 235 232 227 231 231 230 228 227 227 228 227 223 225 226 223 218 202 198 188 165 194 237 244 255 261 257 241 226 234 249 252 252 251 248 234 225 228 240 258 267 267 270
298 297 295 294 292 289 287 286 283 280 277 275 273 271 269 267 266 265 265 262 257 258 260 257 255 254 250 247 249 246 240 240 240 238 238 239 240 242 244 243 240 237 235 234 234 235 236 232 229 232 230 229 227 225 224 224 223 220 221 223 223 219 198 188 200 173 187 230 239 246 256 257 247 233 228 241 251 254 254 246 234 232 234 238 248 254 257 263
302 301 299 299 297 294 291 290 288 283 280 277 273 269 267 265 264 263 262 263 259 254 255 257 255 253 250 246 247 246 240 237 237 236 235 236 237 238 242 242 239 237 236 236 237 236 232 224 229 232 229 228 227 225 224 222 221 218 217 219 217 221 212 188 187 191 204 230 235 239 251 250 246 249 240 235 245 250 246 238 231 231 234 234 240 244 251 258
307 305 303 302 301 299 295 293 292 288 283 280 277 273 269 265 262 261 260 260 258 254 252 253 253 250 246 243 244 245 242 237 236 236 235 234 234 235 238 239 237 236 236 236 238 236 227 223 229 231 227 226 225 226 226 225 224 218 215 217 211 215 219 187 176 194 219 232 239 241 247 250 252 263 253 235 239 246 247 247 241 232 230 233 238 239 246 254
310 308 306 303 303 303 300 297 296 292 288 285 281 277 273 269 264 260 259 257 254 253 251 249 248 248 246 243 243 245 243 238 236 236 236 234 233 233 234 236 235 234 235 235 237 233 224 223 228 229 228 227 226 225 226 225 226 221 214 215 212 210 212 189 175 187 202 214 241 251 251 255 262 266 259 248 252 253 251 255 256 249 241 241 238 232 236 244
313 312 310 308 306 306 305 304 300 296 294 290 285 282 278 274 268 262 259 255 254 253 250 247 245 244 243 240 239 241 241 238 236 237 237 235 232 232 233 234 235 233 232 233 234 231 224 224 228 228 228 230 228 226 227 227 227 224 215 212 212 211 210 198 183 185 193 199 222 250 253 254 262 264 261 262 265 258 250 253 260 261 257 252 243 231 230 233
317 316 315 314 312 310 310 310 307 304 302 298 294 289 284 279 272 267 262 257 255 254 248 245 243 240 240 239 237 238 239 238 235 235 237 235 232 231 232 233 233 233 231 234 235 231 227 227 230 230 227 230 230 226 227 229 229 225 216 212 211 211 213 208 198 190 190 195 201 223 246 247 252 257 257 259 256 248 245 246 253 259 258 259 255 230 220 223
320 320 319 318 317 316 316 317 317 318 317 313 308 302 297 290 278 271 268 260 255 252 245 241 240 239 238 237 236 235 234 235 233 230 232 233 230 229 230 231 233 232 230 233 235 230 226 226 228 229 227 228 229 226 223 226 229 224 218 215 212 211 212 212 212 201 192 197 195 197 226 243 249 254 254 253 249 252 255 248 251 257 257 259 263 235 214 216
322 321 320 319 319 319 320 324 325 326 326 325 324 322 318 309 295 285 276 264 256 247 239 238 237 236 235 234 234 233 231 231 231 228 229 231 230 227 227 227 229 231 229 229 231 228 224 223 225 226 225 224 224 224 222 225 228 224 219 218 214 214 213 213 216 211 205 208 202 193 203 226 242 248 250 251 254 268 270 252 246 252 253 256 262 252 222 212
322 322 322 321 320 319 320 322 324 325 326 324 323 322 322 320 315 305 289 272 261 247 234 232 233 232 232 231 232 233 230 228 229 228 227 228 230 226 223 222 223 225 226 225 227 226 222 220 221 223 222 221 221 221 221 224 225 221 219 218 216 215 216 215 215 215 218 222 218 205 197 208 224 230 237 253 262 265 264 252 243 250 254 254 253 252 227 206
324 324 324 322 319 317 318 319 320 320 318 316 316 316 317 320 320 316 304 280 260 247 235 230 229 228 229 228 228 230 228 223 224 226 225 225 228 228 224 222 222 223 224 224 224 224 222 221 221 221 220 219 219 220 220 221 220 218 217 215 214 214 215 217 216 217 223 227 225 217 208 213 223 223 218 230 246 249 256 265 263 262 264 258 250 245 218 200
324 324 323 319 316 314 315 315 313 312 311 312 313 313 315 318 319 321 317 291 260 250 238 229 226 224 225 224 223 227 226 217 214 219 224 223 224 228 227 224 223 224 226 227 227 225 223 222 221 221 222 220 219 219 220 220 219 218 219 218 218 218 219 221 221 222 226 228 226 221 221 227 234 234 224 222 231 235 242 265 268 269 271 263 258 251 222 201
321 321 319 316 315 314 313 312 310 310 310 311 312 313 314 316 317 322 326 318 286 260 240 225 219 216 218 218 215 222 222 211 201 204 216 221 221 223 226 224 221 222 224 225 227 226 223 222 222 222 224 222 220 221 223 223 222 221 224 226 226 226 228 229 229 230 230 232 230 224 226 232 237 240 237 234 238 235 231 245 257 263 260 252 253 254 241 221
318 319 317 317 318 316 314 313 312 312 311 311 313 313 314 316 317 320 328 332 310 263 237 220 210 207 209 207 200 206 213 206 198 197 201 214 220 220 223 224 220 219 222 223 223 225 224 222 221 223 225 225 223 224 225 224 223 222 223 227 229 228 230 233 234 236 235 235 235 232 235 240 242 245 243 241 244 242 237 238 245 252 252 243 242 246 248 240
319 318 317 318 318 316 314 315 315 313 312 312 312 313 313 315 317 318 325 331 315 264 237 215 202 199 199 198 195 199 204 201 198 198 197 201 212 218 222 225 221 217 221 223 222 223 225 221 218 221 223 224 223 222 224 224 221 221 223 226 230 230 229 230 232 233 234 236 238 242 246 248 247 247 246 246 248 245 241 239 239 242 246 244 240 243 248 237
322 320 318 318 318 316 314 315 316 313 312 312 312 313 313 313 315 316 323 327 311 264 240 215 201 200 196 193 195 198 200 197 192 192 193 194 198 205 217 228 228 220 220 223 222 222 223 222 220 220 220 223 225 222 223 224 221 222 227 228 229 228 225 225 227 230 234 237 239 243 247 247 245 242 242 248 251 242 233 233 232 232 235 240 243 247 245 225
324 322 319 319 319 318 316 317 317 314 313 311 311 313 310 311 315 314 320 323 305 261 243 223 209 205 200 193 192 194 196 194 188 186 186 188 188 190 200 212 220 218 215 218 221 219 218 221 223 222 219 220 225 226 223 222 220 221 228 231 227 226 226 223 224 227 234 238 238 239 242 246 247 241 230 233 241 239 228 223 224 225 227 232 239 246 244 227
326 324 322 322 322 321 319 320 318 314 313 311 311 313 309 310 315 312 316 319 299 265 247 233 219 214 212 202 192 189 190 188 184 182 182 184 185 189 196 199 204 210 208 208 212 212 211 214 216 218 220 219 220 225 225 221 218 217 222 229 228 227 228 229 230 230 233 236 238 241 243 247 251 250 238 224 222 229 227 221 222 223 224 227 232 242 246 234
328 327 325 324 324 324 324 323 319 315 314 313 312 311 308 309 311 310 313 312 293 270 254 243 231 225 224 215 199 188 185 184 181 180 181 183 185 190 196 197 200 207 207 204 205 205 207 211 209 206 219 225 220 221 223 221 218 215 216 223 226 224 223 228 233 232 230 233 234 237 243 249 257 261 254 243 230 224 223 222 223 221 221 226 232 241 244 239
330 329 327 325 325 326 326 324 322 318 315 313 311 308 306 308 306 307 311 304 290 277 262 250 244 238 233 227 214 195 185 184 182 181 184 186 186 189 193 195 196 200 204 204 202 201 203 210 208 193 196 224 226 222 223 224 223 220 220 223 227 227 223 223 229 229 227 229 228 227 231 237 251 246 238 244 249 234 220 223 226 219 215 222 232 239 241 242
331 330 330 329 328 327 327 325 323 319 314 311 309 304 302 304 302 303 306 297 286 281 268 255 252 247 242 238 227 207 191 188 187 186 188 189 187 187 189 190 191 194 199 199 199 200 200 203 206 192 184 206 226 230 228 228 227 224 224 226 228 231 229 227 229 228 225 224 222 221 211 188 212 245 229 229 254 241 218 219 227 220 216 220 228 237 242 246
331 333 333 332 331 330 327 325 323 319 313 307 302 297 296 298 298 301 304 296 285 280 271 261 255 251 250 246 235 222 206 197 194 194 190 187 187 186 185 187 188 192 197 197 197 201 200 198 201 196 185 190 212 231 237 233 229 225 223 224 227 231 233 232 231 230 229 226 220 218 212 195 192 230 226 215 236 240 226 222 227 222 218 219 227 238 243 246
331 333 335 334 334 332 329 326 324 320 314 305 295 290 293 294 297 302 303 300 294 285 274 265 258 253 252 250 242 236 224 209 203 199 189 183 186 186 184 186 188 190 195 197 197 200 200 196 194 191 185 183 192 213 227 230 227 222 219 219 221 225 228 231 229 227 230 230 223 220 219 210 193 191 211 215 219 233 237 234 231 225 218 219 228 238 239 239
332 333 337 338 335 333 332 330 328 325 317 306 294 289 291 291 296 303 303 302 302 295 280 268 263 256 251 248 247 244 236 224 212 199 188 183 184 184 183 185 187 188 192 195 198 200 199 194 191 187 184 181 182 197 216 225 223 220 217 216 215 215 216 225 227 224 226 229 228 224 219 216 208 196 203 217 221 237 250 247 234 224 215 215 227 235 233 233
335 337 342 342 337 334 334 333 333 330 318 305 292 288 288 286 292 300 303 303 304 304 291 273 266 262 254 249 247 246 244 235 216 197 190 186 182 182 184 186 186 186 189 192 197 200 198 194 192 187 182 180 181 189 207 224 227 223 218 213 211 207 205 216 227 225 223 224 227 227 218 216 220 213 208 216 222 235 250 251 241 227 218 216 225 232 233 235
340 343 344 344 341 337 337 337 337 331 316 300 291 292 286 280 289 296 300 305 307 308 300 281 269 266 260 253 248 247 248 240 218 200 194 189 182 182 185 187 187 186 187 190 194 199 198 194 192 188 183 181 182 184 197 220 230 231 225 214 209 205 202 207 220 225 223 219 219 224 219 215 222 222 218 222 224 228 244 253 253 244 230 218 218 222 226 235
345 347 344 343 341 340 340 339 337 331 316 297 295 303 291 283 293 297 298 306 311 310 306 293 277 269 265 261 253 249 248 241 223 207 198 190 185 184 186 188 188 186 187 189 193 198 198 193 190 187 184 182 183 183 186 201 218 231 232 221 209 205 205 206 210 219 224 219 213 217 222 222 223 225 225 229 230 231 240 248 243 232 221 209 207 214 222 230
348 348 346 344 341 342 342 340 339 334 319 300 303 310 300 287 291 297 299 306 310 311 312 307 290 278 271 265 260 253 247 240 228 214 202 191 186 186 188 189 188 187 188 190 193 198 197 193 189 187 184 183 185 185 180 182 197 216 226 223 208 203 207 204 201 208 220 219 210 210 224 228 224 224 225 226 226 225 231 232 219 211 211 203 200 209 220 228
346 346 349 346 342 344 345 343 344 340 325 312 310 308 302 291 288 294 300 307 310 311 318 315 298 290 282 270 265 258 247 240 231 220 207 194 188 187 189 189 188 188 190 191 192 196 196 193 190 187 184 184 187 187 182 180 188 203 215 216 202 200 208 203 195 197 207 210 202 201 210 210 207 214 211 203 206 213 222 226 214 209 210 201 196 206 217 224
345 345 349 347 343 346 349 346 346 345 333 322 312 301 305 302 292 294 298 301 308 312 319 321 309 300 292 276 268 259 248 242 234 224 213 200 191 188 187 187 187 187 191 192 191 194 197 193 190 188 185 185 188 188 183 181 186 195 206 207 191 191 205 206 196 191 195 203 198 194 198 193 193 204 202 193 198 206 213 220 214 208 205 197 198 207 212 217
344 346 347 345 342 347 353 349 345 346 341 331 317 298 302 309 300 302 303 295 301 309 313 319 317 308 297 276 265 256 248 245 238 228 219 207 197 191 185 185 187 188 191 192 190 193 197 194 189 188 185 184 189 189 182 182 185 189 199 202 189 185 197 207 202 189 185 198 200 192 196 198 195 199 200 196 199 204 211 218 216 213 211 207 207 208 205 209
Height
5877 5876 5876 5875 5875 5874 5873 5873 5872 5872 5872 5871 5871 5870 5870 5870 5870 5869 5869 5869 5869 5869 5869 5869 5869 5869 5869 5870 5870 5870 5871 5871 5872 5872 5871 5872 5873 5873 5874 5874 5875 5876 5877 5878 5878 5879 5880 5881 5881 5882 5883 5884 5885 5886 5888 5891 5893 5895 5895 5897 5897 5898 5898 5898 5899 5900 5900 5900 5901 5901 5900 5900 5900 5900 5899 5900 5902 5903 5904 5904 5904 5905 5905 5905 5905 5905 5905 5906
5875 5875 5874 5873 5873 5872 5871 5871 5871 5870 5870 5869 5869 5868 5868 5868 5868 5868 5867 5867 5866 5867 5867 5868 5868 5868 5868 5868 5869 5869 5870 5870 5870 5869 5870 5871 5872 5872 5873 5873 5874 5875 5876 5876 5877 5878 5878 5879 5880 5881 5882 5883 5884 5885 5887 5889 5891 5893 5894 5895 5897 5897 5898 5898 5898 5900 5900 5900 5902 5901 5900 5901 5900 5900 5899 5900 5902 5903 5904 5904 5904 5904 5904 5905 5905 5905 5905 5906
5873 5872 5872 5871 5871 5870 5869 5869 5869 5868 5868 5867 5867 5866 5866 5866 5866 5866 5865 5865 5864 5865 5865 5866 5866 5866 5866 5866 5867 5868 5868 5869 5868 5868 5869 5870 5870 5870 5871 5872 5873 5874 5874 5875 5875 5876 5876 5877 5878 5879 5880 5881 5882 5884 5885 5887 5890 5892 5893 5894 5896 5896 5897 5897 5898 5899 5899 5900 5902 5901 5901 5901 5899 5899 5900 5899 5901 5903 5903 5904 5904 5904 5904 5904 5905 5905 5905 5905
5871 5870 5870 5869 5868 5868 5867 5867 5866 5866 5866 5865 5865 5864 5864 5864 5864 5864 5864 5863 5862 5863 5863 5864 5864 5864 5865 5865 5865 5865 5866 5867 5866 5867 5868 5868 5867 5868 5869 5870 5871 5872 5872 5873 5874 5875 5875 5876 5877 5878 5879 5880 5881 5882 5884 5886 5888 5891 5892 5893 5894 5895 5896 5897 5898 5898 5898 5900 5902 5901 5902 5901 5899 5899 5899 5899 5901 5903 5903 5903 5903 5904 5904 5904 5904 5904 5905 5905
5869 5868 5867 5867 5866 5866 5865 5864 5864 5864 5863 5863 5862 5862 5862 5862 5862 5862 5862 5861 5861 5860 5861 5862 5862 5862 5863 5863 5864 5863 5865 5865 5864 5865 5867 5866 5866 5867 5868 5869 5869 5870 5871 5872 5873 5874 5874 5875 5876 5877 5878 5879 5880 5881 5883 5885 5887 5889 5891 5891 5892 5894 5896 5896 5897 5898 5899 5900 5901 5901 5901 5901 5899 5899 5899 5899 5901 5903 5903 5903 5903 5903 5903 5904 5904 5904 5904 5904
5866 5865 5865 5864 5863 5863 5862 5862 5861 5861 5861 5860 5860 5859 5859 5859 5859 5859 5859 5859 5859 5858 5859 5860 5860 5860 5860 5861 5862 5862 5863 5863 5862 5864 5865 5865 5865 5865 5866 5867 5868 5868 5869 5870 5871 5872 5873 5874 5875 5876 5877 5878 5879 5881 5882 5883 5885 5887 5889 5891 5892 5893 5895 5895 5896 5898 5899 5900 5900 5901 5901 5900 5899 5899 5899 5899 5900 5903 5904 5903 5903 5903 5903 5903 5903 5904 5904 5904
5863 5862 5862 5861 5860 5860 5860 5859 5859 5858 5858 5858 5857 5857 5857 5857 5857 5857 5857 5857 5857 5856 5856 5857 5858 5858 5858 5859 5860 5860 5861 5861 5862 5862 5862 5863 5863 5863 5864 5865 5866 5867 5868 5869 5869 5871 5872 5873 5875 5876 5876 5877 5879 5880 5881 5881 5884 5886 5888 5890 5891 5893 5894 5895 5896 5897 5899 5899 5899 5900 5900 5899 5899 5898 5898 5898 5899 5902 5903 5902 5903 5903 5903 5903 5903 5903 5903 5904
5859 5859 5858 5857 5857 5857 5856 5856 5856 5855 5855 5855 5855 5854 5854 5854 5854 5854 5854 5854 5854 5854 5854 5854 5856 5855 5856 5856 5857 5858 5858 5860 5860 5859 5859 5861 5861 5861 5862 5863 5864 5865 5866 5866 5867 5869 5870 5872 5873 5874 5875 5876 5877 5878 5879 5879 5882 5884 5886 5888 5890 5892 5893 5894 5895 5896 5898 5898 5898 5900 5900 5899 5898 5898 5898 5898 5898 5902 5903 5902 5902 5903 5903 5903 5903 5903 5903 5903
5855 5855 5854 5854 5853 5853 5853 5853 5852 5852 5852 5852 5851 5851 5851 5851 5851 5851 5851 5851 5851 5852 5851 5852 5853 5853 5853 5854 5855 5856 5855 5857 5858 5856 5857 5859 5859 5860 5861 5861 5862 5863 5863 5864 5865 5867 5868 5870 5872 5873 5874 5875 5875 5876 5877 5878 5880 5883 5884 5886 5889 5891 5892 5893 5895 5895 5896 5897 5899 5900 5900 5899 5897 5898 5898 5897 5899 5901 5903 5902 5902 5902 5903 5903 5903 5903 5903 5903
5851 5851 5850 5850 5849 5849 5849 5849 5848 5848 5848 5848 5848 5848 5848 5848 5848 5848 5848 5848 5848 5848 5848 5849 5850 5850 5851 5852 5854 5852 5850 5854 5856 5855 5856 5856 5857 5858 5859 5859 5860 5861 5861 5862 5863 5865 5867 5869 5870 5870 5871 5871 5872 5874 5874 5876 5879 5881 5882 5884 5886 5889 5890 5891 5893 5894 5894 5896 5898 5898 5898 5897 5897 5898 5897 5897 5899 5901 5902 5902 5902 5903 5903 5903 5903 5903 5903 5903
5847 5847 5846 5846 5845 5845 5844 5844 5844 5844 5844 5844 5844 5844 5844 5844 5844 5844 5844 5845 5845 5845 5845 5846 5847 5848 5848 5850 5852 5847 5847 5852 5854 5853 5854 5854 5855 5856 5857 5858 5858 5859 5859 5860 5861 5863 5865 5866 5867 5867 5869 5870 5871 5872 5873 5876 5878 5878 5880 5882 5884 5885 5887 5889 5891 5893 5893 5895 5896 5896 5895 5895 5896 5897 5895 5896 5899 5900 5902 5903 5903 5904 5904 5903 5903 5903 5903 5903
5843 5842 5842 5841 5840 5840 5840 5840 5839 5839 5839 5840 5840 5840 5840 5840 5840 5840 5840 5841 5841 5841 5842 5842 5843 5845 5846 5849 5848 5842 5845 5850 5852 5852 5852 5852 5853 5854 5855 5856 5856 5857 5857 5858 5859 5861 5862 5863 5864 5865 5867 5868 5869 5870 5872 5875 5876 5877 5878 5880 5882 5883 5884 5887 5890 5892 5893 5894 5895 5894 5894 5894 5895 5896 5894 5894 5898 5900 5901 5902 5903 5904 5904 5903 5903 5902 5903 5903
5838 5838 5837 5836 5836 5836 5835 5835 5834 5834 5834 5834 5835 5835 5835 5835 5835 5836 5836 5837 5837 5837 5838 5838 5840 5841 5844 5847 5843 5839 5844 5847 5848 5850 5849 5849 5850 5852 5853 5853 5854 5854 5855 5856 5857 5858 5859 5860 5862 5864 5865 5865 5867 5869 5870 5873 5875 5876 5877 5878 5879 5880 5882 5886 5888 5890 5892 5893 5893 5892 5893 5894 5894 5895 5892 5892 5897 5899 5900 5901 5902 5903 5903 5903 5902 5902 5902 5902
5835 5834 5833 5832 5831 5831 5830 5830 5830 5829 5829 5829 5830 5830 5830 5830 5830 5831 5832 5832 5833 5833 5834 5834 5836 5837 5841 5845 5838 5836 5842 5843 5846 5848 5847 5847 5847 5848 5851 5851 5852 5852 5853 5853 5854 5855 5857 5858 5859 5860 5861 5863 5865 5866 5867 5869 5871 5872 5874 5875 5877 5878 5881 5884 5885 5888 5890 5891 5892 5891 5891 5893 5893 5893 5892 5892 5895 5898 5899 5900 5902 5902 5902 5902 5901 5901 5901 5901
5831 5830 5829 5828 5827 5826 5826 5826 5825 5825 5824 5824 5824 5824 5825 5824 5825 5826 5826 5827 5828 5829 5829 5829 5832 5833 5838 5840 5834 5834 5839 5841 5843 5842 5842 5843 5843 5845 5848 5848 5849 5850 5850 5851 5852 5853 5854 5855 5856 5858 5859 5861 5862 5863 5865 5866 5867 5869 5870 5872 5875 5878 5880 5882 5883 5885 5888 5889 5889 5890 5891 5892 5892 5891 5891 5893 5895 5897 5898 5899 5901 5902 5901 5901 5901 5901 5901 5901
5827 5826 5824 5823 5822 5822 5821 5821 5821 5820 5819 5819 5819 5819 5819 5819 5819 5820 5821 5822 5822 5824 5824 5825 5827 5828 5833 5835 5832 5832 5835 5837 5837 5836 5838 5840 5840 5843 5844 5845 5846 5846 5848 5848 5849 5850 5851 5852 5854 5855 5857 5858 5860 5862 5864 5864 5865 5868 5869 5871 5874 5876 5879 5880 5882 5884 5887 5888 5888 5889 5890 5891 5892 5890 5889 5893 5894 5896 5898 5899 5900 5900 5900 5900 5900 5900 5900 5900
5823 5821 5820 5818 5818 5817 5816 5816 5815 5815 5815 5814 5813 5813 5813 5813 5814 5815 5816 5816 5817 5818 5818 5820 5822 5823 5827 5830 5829 5828 5830 5832 5833 5834 5836 5837 5838 5839 5840 5842 5843 5843 5845 5845 5846 5847 5848 5849 5851 5852 5853 5855 5858 5859 5860 5862 5865 5867 5868 5870 5873 5875 5877 5879 5881 5883 5885 5886 5887 5888 5890 5891 5891 5889 5888 5891 5893 5894 5896 5897 5898 5898 5898 5899 5899 5899 5900 5900
5818 5817 5815 5813 5812 5811 5810 5810 5810 5809 5809 5809 5808 5808 5808 5807 5808 5809 5810 5810 5810 5811 5812 5814 5816 5819 5822 5825 5826 5825 5826 5828 5829 5831 5833 5833 5834 5835 5836 5839 5839 5840 5841 5841 5844 5845 5846 5847 5848 5849 5850 5853 5855 5856 5859 5862 5864 5865 5867 5869 5871 5873 5875 5877 5880 5881 5883 5884 5886 5887 5889 5891 5889 5887 5888 5890 5891 5893 5894 5895 5896 5897 5897 5898 5898 5899 5899 5899
5813 5811 5810 5808 5807 5806 5804 5804 5804 5803 5803 5803 5802 5802 5801 5802 5802 5803 5804 5804 5804 5805 5806 5808 5810 5814 5817 5819 5820 5821 5821 5823 5824 5826 5829 5830 5830 5831 5832 5834 5835 5836 5837 5839 5841 5842 5843 5844 5844 5846 5849 5852 5854 5856 5859 5862 5863 5864 5866 5867 5869 5871 5873 5876 5879 5880 5882 5883 5884 5886 5888 5891 5889 5886 5887 5890 5891 5893 5893 5894 5895 5896 5896 5896 5898 5898 5898 5898
5807 5805 5804 5802 5800 5800 5798 5797 5797 5796 5796 5796 5796 5796 5795 5796 5796 5796 5798 5799 5799 5799 5800 5801 5804 5809 5812 5812 5814 5815 5816 5818 5820 5823 5825 5825 5825 5826 5827 5829 5831 5832 5834 5837 5839 5839 5839 5839 5842 5847 5849 5851 5853 5855 5858 5859 5860 5862 5863 5864 5867 5869 5872 5875 5877 5879 5882 5883 5883 5886 5888 5890 5889 5886 5885 5888 5890 5892 5893 5894 5894 5895 5895 5895 5896 5897 5897 5898
5801 5799 5798 5796 5794 5793 5791 5790 5790 5789 5788 5788 5789 5789 5788 5789 5789 5790 5792 5794 5794 5793 5794 5795 5796 5802 5807 5805 5807 5810 5810 5812 5816 5818 5821 5822 5821 5821 5823 5826 5827 5829 5833 5836 5835 5834 5833 5836 5843 5847 5847 5848 5850 5852 5854 5855 5857 5859 5860 5862 5864 5867 5870 5874 5876 5878 5882 5883 5883 5884 5886 5888 5889 5887 5885 5884 5886 5889 5891 5893 5893 5894 5896 5895 5894 5895 5897 5897
5794 5792 5791 5789 5787 5786 5784 5782 5782 5781 5781 5780 5780 5780 5780 5781 5782 5782 5785 5789 5790 5787 5788 5791 5791 5795 5802 5800 5799 5801 5804 5806 5810 5813 5816 5817 5817 5817 5819 5822 5824 5828 5831 5830 5829 5829 5830 5837 5845 5844 5843 5845 5846 5848 5850 5852 5854 5856 5858 5859 5861 5864 5867 5872 5875 5877 5880 5882 5882 5883 5885 5887 5888 5888 5886 5882 5882 5886 5888 5890 5892 5893 5894 5894 5894 5894 5896 5897
5787 5785 5783 5781 5778 5778 5776 5774 5773 5773 5773 5772 5772 5772 5772 5773 5773 5775 5777 5781 5787 5784 5780 5784 5786 5789 5795 5795 5791 5792 5798 5802 5804 5808 5810 5810 5813 5815 5815 5818 5821 5824 5825 5824 5825 5826 5831 5840 5842 5838 5839 5841 5842 5845 5846 5847 5849 5852 5854 5856 5859 5863 5865 5869 5874 5877 5878 5880 5882 5882 5883 5885 5886 5886 5886 5883 5880 5884 5888 5889 5890 5891 5893 5893 5893 5894 5895 5896
5779 5777 5775 5773 5770 5768 5768 5765 5763 5763 5763 5763 5763 5763 5763 5764 5764 5767 5769 5774 5781 5778 5774 5778 5781 5783 5787 5788 5784 5784 5790 5795 5797 5801 5803 5804 5808 5810 5811 5814 5817 5819 5819 5821 5822 5825 5831 5837 5834 5833 5836 5837 5839 5841 5841 5842 5845 5848 5852 5854 5858 5862 5863 5866 5872 5878 5879 5879 5879 5881 5882 5882 5883 5884 5885 5884 5881 5882 5886 5888 5889 5891 5892 5893 5893 5894 5894 5895
5770 5768 5766 5765 5762 5759 5758 5757 5753 5752 5753 5752 5752 5753 5754 5755 5756 5758 5761 5767 5770 5768 5769 5773 5773 5775 5778 5778 5777 5778 5782 5788 5792 5794 5796 5799 5803 5805 5806 5808 5811 5813 5815 5818 5819 5821 5828 5831 5829 5829 5831 5833 5836 5837 5839 5840 5842 5846 5849 5852 5856 5860 5863 5865 5868 5873 5877 5878 5877 5877 5878 5878 5880 5882 5883 5883 5881 5880 5882 5884 5887 5889 5891 5892 5893 5894 5894 5895
5762 5760 5758 5757 5755 5752 5750 5748 5744 5743 5744 5742 5742 5742 5743 5744 5746 5749 5752 5758 5760 5758 5762 5765 5765 5766 5769 5771 5773 5772 5774 5781 5787 5788 5789 5794 5797 5799 5800 5802 5805 5809 5812 5814 5814 5817 5823 5825 5824 5825 5828 5831 5833 5834 5836 5838 5839 5842 5846 5851 5854 5856 5860 5862 5863 5867 5871 5874 5875 5873 5875 5876 5877 5879 5881 5881 5880 5879 5878 5878 5880 5884 5888 5890 5891 5893 5894 5894
5755 5753 5751 5748 5747 5746 5744 5741 5737 5736 5735 5733 5733 5732 5732 5732 5734 5739 5743 5748 5750 5749 5751 5753 5755 5757 5758 5761 5764 5764 5768 5776 5781 5782 5784 5787 5790 5792 5794 5796 5800 5804 5807 5808 5808 5812 5819 5820 5819 5822 5826 5827 5829 5832 5835 5837 5837 5840 5845 5849 5851 5853 5856 5859 5860 5861 5865 5870 5872 5871 5872 5874 5874 5875 5878 5879 5878 5878 5877 5875 5875 5878 5883 5886 5889 5891 5892 5893
5749 5747 5745 5741 5740 5738 5738 5735 5732 5730 5727 5725 5725 5723 5723 5722 5723 5728 5731 5737 5741 5738 5738 5741 5744 5747 5749 5753 5757 5759 5764 5769 5773 5777 5777 5778 5782 5786 5788 5791 5795 5798 5802 5801 5804 5812 5817 5817 5818 5820 5823 5824 5827 5832 5834 5835 5835 5838 5843 5845 5847 5850 5853 5856 5857 5857 5861 5864 5866 5868 5870 5871 5870 5872 5875 5876 5876 5876 5876 5875 5874 5875 5879 5882 5886 5889 5891 5891
5744 5742 5740 5737 5734 5731 5730 5729 5727 5725 5722 5720 5718 5716 5715 5712 5713 5717 5717 5724 5730 5726 5726 5731 5735 5739 5743 5747 5750 5752 5756 5759 5764 5768 5767 5768 5774 5778 5781 5786 5789 5792 5796 5797 5801 5807 5811 5813 5814 5816 5818 5821 5825 5829 5830 5831 5832 5836 5840 5841 5844 5847 5849 5853 5854 5855 5857 5856 5857 5863 5866 5866 5867 5869 5872 5872 5872 5873 5875 5876 5875 5873 5875 5879 5882 5886 5889 5890
5740 5738 5736 5733 5730 5727 5725 5723 5722 5721 5718 5715 5712 5710 5709 5706 5706 5706 5704 5709 5715 5713 5716 5722 5727 5731 5735 5739 5742 5744 5749 5752 5755 5759 5760 5762 5766 5771 5776 5779 5782 5784 5789 5791 5794 5799 5805 5807 5809 5810 5814 5818 5821 5824 5826 5827 5830 5834 5837 5838 5840 5842 5845 5848 5851 5854 5853 5848 5851 5857 5861 5863 5863 5864 5867 5868 5869 5871 5872 5875 5875 5873 5872 5876 5879 5882 5886 5888
5737 5734 5731 5729 5727 5724 5722 5719 5716 5714 5711 5709 5708 5706 5704 5702 5700 5698 5696 5698 5698 5699 5707 5714 5719 5722 5724 5731 5737 5738 5741 5744 5747 5750 5753 5755 5757 5762 5767 5769 5772 5776 5779 5783 5787 5792 5797 5799 5802 5805 5809 5813 5816 5819 5822 5824 5826 5830 5832 5834 5836 5838 5841 5843 5847 5850 5845 5843 5850 5856 5857 5858 5857 5860 5864 5865 5866 5869 5870 5872 5874 5871 5869 5872 5877 5880 5883 5886
5733 5731 5728 5725 5723 5720 5718 5715 5712 5709 5707 5704 5703 5700 5699 5697 5695 5690 5687 5686 5683 5688 5701 5707 5710 5714 5716 5723 5729 5729 5732 5735 5738 5741 5744 5748 5750 5753 5759 5763 5767 5769 5773 5778 5781 5785 5790 5795 5798 5801 5804 5808 5811 5814 5817 5819 5821 5824 5826 5828 5830 5833 5836 5837 5840 5841 5839 5842 5850 5855 5855 5852 5852 5857 5862 5863 5865 5867 5868 5869 5870 5869 5868 5869 5873 5877 5881 5885
5730 5728 5725 5722 5719 5716 5714 5711 5708 5706 5703 5700 5698 5695 5693 5691 5688 5683 5680 5678 5675 5681 5693 5697 5701 5705 5707 5713 5719 5719 5721 5725 5730 5734 5737 5741 5744 5747 5754 5759 5763 5767 5772 5776 5777 5780 5787 5791 5794 5797 5801 5804 5806 5809 5811 5813 5817 5820 5822 5824 5827 5829 5831 5832 5835 5836 5837 5842 5847 5853 5853 5849 5850 5856 5859 5860 5863 5866 5867 5867 5867 5868 5866 5867 5870 5874 5878 5882
5726 5724 5721 5718 5715 5712 5709 5707 5704 5701 5698 5695 5693 5690 5687 5684 5680 5678 5675 5672 5672 5677 5682 5686 5691 5694 5696 5705 5711 5705 5706 5714 5719 5723 5728 5732 5737 5741 5746 5752 5758 5763 5766 5768 5770 5776 5781 5784 5789 5794 5796 5799 5802 5805 5808 5812 5816 5819 5821 5823 5825 5827 5828 5830 5833 5835 5837 5840 5843 5848 5848 5846 5849 5854 5856 5859 5861 5864 5866 5866 5866 5866 5865 5865 5868 5871 5875 5879
5722 5720 5717 5713 5710 5707 5704 5701 5698 5695 5692 5689 5687 5684 5682 5679 5674 5672 5670 5667 5667 5670 5673 5676 5682 5685 5688 5695 5693 5685 5694 5705 5705 5707 5716 5724 5730 5735 5740 5746 5753 5757 5759 5760 5765 5771 5774 5779 5787 5791 5792 5796 5801 5804 5806 5809 5812 5816 5819 5820 5820 5824 5827 5830 5832 5834 5836 5838 5840 5842 5843 5845 5849 5852 5854 5857 5859 5862 5864 5864 5864 5865 5864 5864 5866 5868 5872 5877
5717 5715 5712 5709 5706 5702 5698 5696 5692 5689 5686 5684 5682 5679 5677 5674 5669 5667 5665 5662 5660 5662 5666 5669 5672 5675 5677 5677 5673 5675 5688 5694 5693 5700 5709 5715 5724 5733 5737 5740 5746 5751 5753 5756 5762 5765 5768 5775 5783 5786 5788 5792 5797 5800 5802 5804 5808 5812 5813 5815 5818 5823 5826 5828 5829 5831 5833 5834 5836 5839 5841 5845 5848 5849 5851 5853 5855 5859 5861 5861 5862 5863 5862 5861 5862 5865 5870 5874
5712 5710 5707 5704 5701 5697 5693 5690 5687 5683 5681 5678 5676 5674 5671 5669 5665 5662 5660 5657 5655 5656 5658 5661 5662 5663 5664 5665 5668 5675 5680 5681 5686 5697 5702 5706 5717 5728 5732 5736 5742 5747 5751 5754 5757 5759 5763 5770 5775 5779 5783 5788 5792 5796 5798 5801 5805 5808 5809 5813 5818 5821 5823 5825 5825 5827 5829 5831 5834 5838 5839 5841 5843 5844 5848 5850 5851 5854 5856 5857 5859 5860 5859 5858 5859 5862 5867 5872
5708 5705 5702 5698 5695 5691 5687 5684 5681 5677 5675 5672 5670 5668 5666 5664 5661 5658 5655 5652 5650 5650 5651 5653 5653 5653 5656 5661 5666 5669 5672 5676 5685 5691 5695 5700 5706 5710 5714 5719 5723 5728 5734 5741 5746 5752 5759 5763 5767 5773 5779 5785 5788 5790 5793 5796 5801 5805 5807 5810 5813 5815 5817 5819 5820 5823 5826 5829 5832 5835 5836 5837 5838 5841 5845 5847 5847 5849 5852 5853 5855 5857 5857 5855 5857 5860 5864 5869
5703 5699 5696 5692 5689 5686 5682 5678 5675 5672 5669 5667 5664 5663 5660 5658 5655 5653 5650 5647 5644 5644 5645 5646 5646 5647 5649 5652 5657 5661 5666 5674 5679 5682 5686 5691 5693 5693 5696 5701 5705 5708 5715 5722 5731 5742 5751 5756 5761 5768 5774 5780 5782 5783 5785 5791 5797 5801 5803 5804 5807 5811 5814 5816 5818 5822 5825 5827 5830 5832 5833 5834 5835 5839 5842 5844 5845 5847 5848 5849 5851 5854 5855 5853 5855 5859 5862 5866
5698 5694 5690 5687 5685 5681 5676 5673 5669 5666 5664 5661 5658 5656 5654 5653 5650 5648 5646 5643 5640 5639 5640 5640 5640 5642 5642 5644 5648 5652 5658 5665 5668 5672 5677 5679 5681 5682 5687 5695 5702 5708 5714 5719 5726 5738 5745 5749 5755 5763 5769 5773 5773 5775 5780 5786 5791 5795 5796 5797 5801 5806 5810 5814 5816 5820 5824 5825 5828 5830 5831 5833 5835 5837 5838 5840 5843 5845 5846 5847 5848 5851 5853 5853 5854 5857 5860 5864
5695 5690 5686 5683 5680 5677 5673 5668 5664 5660 5657 5655 5653 5650 5648 5647 5645 5643 5641 5638 5636 5635 5635 5636 5636 5636 5637 5639 5641 5644 5650 5655 5658 5663 5666 5666 5669 5673 5682 5691 5698 5705 5712 5718 5725 5733 5737 5741 5748 5756 5762 5766 5768 5773 5779 5783 5788 5792 5794 5795 5797 5801 5807 5810 5812 5816 5821 5823 5826 5829 5830 5833 5835 5836 5835 5837 5840 5842 5844 5845 5846 5848 5851 5852 5852 5855 5857 5861
5692 5687 5682 5678 5675 5673 5669 5665 5660 5656 5652 5649 5647 5645 5643 5641 5640 5639 5637 5635 5632 5631 5631 5632 5632 5631 5633 5634 5635 5639 5643 5646 5648 5651 5653 5657 5663 5669 5676 5684 5689 5695 5701 5706 5713 5718 5723 5732 5743 5750 5755 5761 5767 5773 5776 5779 5784 5790 5794 5795 5796 5799 5803 5806 5808 5813 5818 5820 5824 5827 5829 5832 5834 5834 5833 5835 5837 5840 5842 5844 5844 5847 5849 5850 5850 5852 5855 5859
5688 5683 5678 5674 5670 5667 5664 5660 5657 5652 5648 5645 5642 5640 5639 5637 5636 5635 5634 5631 5629 5628 5629 5629 5628 5628 5629 5631 5632 5633 5634 5636 5637 5639 5644 5654 5662 5666 5670 5676 5682 5687 5693 5701 5709 5714 5720 5729 5738 5747 5752 5757 5764 5770 5772 5776 5780 5784 5788 5792 5794 5796 5799 5803 5807 5812 5815 5818 5822 5824 5826 5830 5833 5832 5832 5834 5835 5837 5840 5842 5843 5845 5847 5848 5848 5850 5853 5856
5684 5680 5676 5671 5666 5662 5658 5654 5651 5648 5644 5641 5638 5637 5635 5634 5632 5631 5630 5628 5626 5625 5626 5626 5625 5625 5626 5628 5627 5626 5626 5627 5628 5633 5644 5654 5658 5662 5665 5670 5675 5682 5690 5702 5708 5711 5717 5724 5731 5741 5748 5751 5757 5764 5766 5768 5772 5776 5781 5786 5790 5793 5797 5801 5805 5809 5811 5814 5818 5821 5824 5828 5831 5832 5832 5833 5833 5835 5837 5840 5841 5843 5845 5846 5847 5849 5851 5853
5680 5677 5673 5668 5662 5658 5654 5650 5646 5643 5640 5637 5634 5633 5632 5630 5629 5628 5627 5626 5624 5623 5622 5622 5622 5622 5623 5624 5623 5621 5620 5618 5621 5633 5644 5649 5653 5658 5661 5664 5668 5675 5685 5694 5698 5701 5710 5717 5723 5732 5740 5744 5750 5756 5758 5760 5765 5770 5775 5780 5786 5791 5795 5797 5801 5805 5808 5811 5814 5818 5822 5826 5828 5831 5832 5831 5833 5834 5835 5837 5840 5841 5842 5844 5844 5846 5849 5851
5675 5672 5669 5665 5658 5653 5650 5646 5642 5638 5635 5632 5631 5630 5628 5627 5626 5625 5624 5623 5622 5621 5619 5619 5619 5618 5619 5619 5618 5615 5612 5612 5620 5632 5639 5643 5648 5653 5656 5660 5663 5670 5678 5685 5691 5697 5706 5713 5718 5725 5733 5740 5745 5752 5756 5759 5761 5765 5770 5775 5781 5788 5793 5795 5797 5801 5805 5809 5812 5814 5819 5823 5824 5827 5830 5830 5833 5834 5832 5833 5836 5838 5839 5841 5842 5844 5847 5849
5671 5667 5663 5660 5656 5651 5646 5642 5638 5634 5630 5628 5627 5627 5625 5624 5623 5622 5622 5621 5620 5618 5617 5616 5615 5615 5615 5614 5613 5610 5607 5610 5619 5628 5632 5637 5642 5647 5652 5656 5659 5665 5672 5679 5686 5693 5699 5706 5715 5723 5730 5735 5741 5749 5754 5757 5759 5762 5767 5773 5777 5783 5789 5792 5794 5798 5802 5807 5810 5812 5817 5820 5820 5824 5828 5829 5831 5833 5830 5830 5833 5835 5838 5840 5841 5842 5845 5847
5668 5664 5659 5655 5652 5649 5645 5639 5635 5630 5627 5625 5625 5624 5623 5622 5621 5620 5619 5618 5617 5615 5614 5614 5613 5612 5612 5611 5609 5607 5605 5609 5615 5621 5627 5633 5638 5643 5649 5653 5657 5662 5667 5672 5678 5683 5691 5701 5710 5717 5724 5731 5738 5745 5749 5753 5758 5761 5764 5770 5775 5779 5784 5788 5792 5797 5800 5804 5808 5811 5814 5817 5819 5822 5825 5826 5829 5831 5829 5828 5830 5833 5836 5838 5840 5841 5843 5845
5666 5662 5658 5653 5649 5646 5642 5637 5633 5628 5624 5623 5623 5621 5620 5619 5619 5618 5616 5615 5615 5613 5612 5611 5611 5610 5609 5608 5606 5604 5604 5607 5611 5616 5623 5628 5633 5639 5644 5649 5655 5659 5662 5665 5670 5678 5688 5697 5703 5709 5717 5725 5732 5738 5741 5746 5753 5756 5760 5766 5772 5776 5780 5786 5791 5796 5799 5802 5807 5810 5812 5815 5818 5821 5822 5824 5826 5827 5826 5826 5828 5830 5832 5835 5838 5840 5841 5843
5663 5660 5657 5652 5647 5643 5639 5634 5630 5627 5623 5621 5620 5619 5618 5617 5616 5615 5614 5613 5612 5611 5610 5609 5608 5607 5607 5606 5604 5603 5603 5604 5606 5611 5618 5624 5629 5634 5639 5644 5650 5656 5658 5658 5663 5674 5683 5690 5697 5706 5714 5720 5727 5733 5736 5740 5746 5752 5755 5762 5769 5774 5778 5783 5789 5793 5797 5801 5805 5809 5811 5813 5816 5818 5820 5821 5822 5823 5823 5824 5826 5828 5831 5834 5837 5838 5840 5843
5661 5658 5654 5650 5645 5641 5637 5632 5628 5625 5622 5619 5618 5616 5616 5615 5613 5613 5612 5611 5610 5609 5608 5606 5606 5605 5604 5603 5602 5602 5601 5601 5603 5607 5613 5619 5624 5629 5634 5639 5645 5651 5653 5653 5660 5670 5678 5685 5694 5703 5712 5719 5725 5730 5733 5734 5740 5746 5751 5757 5764 5770 5775 5780 5785 5790 5795 5799 5803 5806 5809 5811 5813 5814 5816 5818 5819 5820 5820 5821 5823 5826 5830 5833 5835 5837 5840 5842
5659 5655 5652 5648 5643 5638 5635 5630 5626 5623 5620 5618 5616 5614 5613 5613 5611 5610 5610 5610 5608 5607 5605 5604 5603 5602 5602 5601 5599 5599 5599 5598 5600 5604 5609 5614 5619 5624 5630 5634 5640 5645 5648 5652 5658 5667 5675 5683 5690 5697 5706 5715 5721 5725 5728 5729 5735 5742 5747 5753 5760 5767 5773 5777 5782 5787 5793 5798 5801 5803 5806 5808 5809 5810 5812 5813 5815 5817 5818 5819 5822 5825 5827 5830 5833 5836 5840 5843